Simultaneous Nadir Overpasses (SNOs) Predictions

Prediction of SNOs between METOP-A and TERRA Satellite Orbit:

Table of predicted SNOs for the next 14.0 days since TLE Epoch: 2/28/2016
Index Date (METOP-A) Time (METOP-A) Lat,Lon (METOP-A) SZA (METOP-A ) Date (TERRA) Time (TERRA) Lat,Lon (TERRA) SZA (TERRA ) Distance(km) Time Diff (sec)
1 03/01/2016 12:51:33 -81.30,-146.01 89.05 03/01/2016 12:51:40 -81.29,-146.16 89.07 2.90 7
2 03/01/2016 13:42:13 81.30, 21.64 90.98 03/01/2016 13:41:06 81.29, 21.62 90.94 0.91 67
3 03/04/2016 07:35:17 81.29, 112.62 89.86 03/04/2016 07:36:23 81.29, 112.79 89.91 2.80 66
4 03/04/2016 08:25:56 -81.30, -79.28 90.07 03/04/2016 08:25:49 -81.31, -79.31 90.07 0.95 7
5 03/07/2016 03:09:41 81.29, 179.28 88.82 03/07/2016 03:10:34 81.29, 179.18 88.83 1.85 53
6 03/07/2016 04:00:21 -81.30, -12.96 91.15 03/07/2016 04:00:00 -81.31, -12.89 91.15 1.45 21
7 03/09/2016 22:44:05 81.30,-114.08 87.77 03/09/2016 22:44:44 81.30,-114.11 87.79 0.93 39
8 03/09/2016 23:34:46 -81.30, 53.33 92.24 03/09/2016 23:34:11 -81.30, 53.48 92.23 2.53 35
9 03/12/2016 18:18:29 81.30, -47.86 86.67 03/12/2016 18:18:54 81.29, -47.84 86.68 0.41 25




NCC Satellite Simultaneous Nadir Overpasses (SNOs) Prediction Service
